sat.trackr.live / text

‹ back to catalog

STARLINK-33856

NORAD 63638 · 2025-083E

PAYLOAD ACTIVE UNKNOWN

§ Identity

Operator
Country
US
Launch date
2025-04-25
Launch site
AFETR
Launch vehicle
Mass (kg)
RCS (m²)

Purposes: comms

External: N2YO · Heavens-Above · Gunter

§ Orbital elements

Epoch: 2026-09-20T12:09:34.001856Z

Period
94.27 min
Inclination
43.0025°
Eccentricity
0.0002005
Mean motion
15.27583985 rev/d
Perigee alt
481.7 km
Apogee alt
484.4 km
Semi-major
6,861.2 km
B*
4.4265e-4
RAAN
344.8088°
Arg perigee
281.2344°
Mean anomaly
78.8282°
Rev number
7,986

§ Raw data

STARLINK-338561 63638U 25083E   26263.50664354  .00011940  00000+0  44265-3 0  99942 63638  43.0025 344.8088 0002005 281.2344  78.8282 15.27583985 79866

JSON: /api/v1/satellites/63638 · /tle

For live sub-satellite position, see the globe view (requires WebGL).

§ Visibility from observer

Set your observer location to see the next 7 days of passes ≥ 10°. The values pass through the URL so the page stays shareable.

No JS? Fill the form by hand. The geolocation button needs JavaScript.